M I D A S
Marine Information and Data Acquisition System
Tripno 873 of the Zeeleeuw from 2005-03-30 06:33:14 to 2005-03-30 12:54:34
Back to CruiseResearch ActivitiesStationsMapUnderway DataData graphs

EquipmentUnitsComments
TimeDGPSUTC
LatitudeDGPSDM.mWGS84
LongitudeDGPSDM.mWGS84
SpeedMeteo Stationm/sRelative wind speed
DirectionMeteo StationdegRelative wind direction
TemperatureMeteo Stationdeg CelciusAir temperature
PressureMeteo StationPaAtmospheric pressure
HumidityMeteo Station%Relative humidity
Missing or incorrect values are displayed as -999
Metereological data collected by the RV Zeeleeuw from 2005-03-30 06:33:59 to 2005-03-30 13:01:34
Time Latitude Longitude Speed Direction Temperature Pressure Humidity
2005-03-30 06:35 51°13.615 2°56.029 0.5 221 10.2 101080 100
2005-03-30 06:36 51°13.653 2°55.918 1.9 206 10.2 101080 100
2005-03-30 06:37 51°13.694 2°55.805 1.2 216 10.2 101090 100
2005-03-30 06:38 51°13.709 2°55.762 1.2 35 10.2 101080 100
2005-03-30 06:39 51°13.707 2°55.739 0.1 124 10.2 101090 100
2005-03-30 06:40 51°13.768 2°55.69 2.8 15 10.2 101090 100
2005-03-30 06:41 51°13.876 2°55.595 3.5 12 10.2 101090 100
2005-03-30 06:42 51°14.004 2°55.504 3.4 9 10.2 101090 100
2005-03-30 06:43 51°14.137 2°55.406 3.7 14 10.2 101090 100
2005-03-30 06:44 51°14.275 2°55.24 4.4 8 10.1 101090 100
2005-03-30 06:45 51°14.388 2°54.992 2.6 4 10.1 101090 100
2005-03-30 06:46 51°14.562 2°54.796 5.9 14 10.1 101100 100
2005-03-30 06:47 51°14.763 2°54.633 6.6 18 10.1 101100 100
2005-03-30 06:48 51°14.966 2°54.468 7.2 21 9.8 101100 100
2005-03-30 06:49 51°15.168 2°54.297 6.7 20 9.7 101100 100
2005-03-30 06:50 51°15.374 2°54.129 6.2 20 9.7 101100 100
2005-03-30 06:51 51°15.577 2°53.955 5.8 17 9.7 101100 100
2005-03-30 06:52 51°15.782 2°53.781 6.2 16 9.6 101100 100
2005-03-30 06:53 51°15.983 2°53.611 6 17 9.5 101100 100
2005-03-30 06:54 51°16.184 2°53.443 6.8 21 9.3 101100 100
2005-03-30 06:55 51°16.391 2°53.273 6.4 22 9.3 101100 100
2005-03-30 06:56 51°16.595 2°53.105 5.9 28 9.3 101100 100
2005-03-30 06:57 51°16.803 2°52.937 5.7 28 9.3 101100 100
2005-03-30 06:58 51°17.006 2°52.77 6 29 9.2 101110 100
2005-03-30 06:59 51°17.214 2°52.613 5.9 30 9 101110 100
2005-03-30 07:00 51°17.438 2°52.517 6.8 29 8.9 101110 100
2005-03-30 07:01 51°17.665 2°52.469 7.1 28 8.8 101100 100
2005-03-30 07:02 51°17.889 2°52.413 7.1 27 8.7 101110 100
2005-03-30 07:03 51°18.116 2°52.407 7.9 25 8.6 101110 100
2005-03-30 07:04 51°18.34 2°52.447 7.6 28 8.5 101110 100
2005-03-30 07:05 51°18.555 2°52.523 8.8 21 8.4 101110 100
2005-03-30 07:06 51°18.664 2°52.805 9.1 13 8.3 101110 100
2005-03-30 07:07 51°18.737 2°53.125 8.9 14 8.2 101110 100
2005-03-30 07:08 51°18.794 2°53.457 8.6 15 8.1 101110 100
2005-03-30 07:09 51°18.862 2°53.777 8.6 16 8.1 101070 100
2005-03-30 07:10 51°18.938 2°54.097 8.9 14 8 101070 100
2005-03-30 07:11 51°19.014 2°54.417 9 13 8 101070 100
2005-03-30 07:12 51°19.088 2°54.74 9.4 11 8 101070 100
2005-03-30 07:13 51°19.16 2°55.057 10.1 7 7.9 101070 100
2005-03-30 07:14 51°19.231 2°55.379 10.4 8 7.9 101070 100
2005-03-30 07:15 51°19.302 2°55.695 11 10 7.9 101080 100
2005-03-30 07:16 51°19.375 2°56.018 11.5 10 8 101070 100
2005-03-30 07:17 51°19.445 2°56.337 10.8 10 8 101070 100
2005-03-30 07:18 51°19.518 2°56.657 10.5 7 8 101070 100
2005-03-30 07:19 51°19.59 2°56.976 11 10 8 101080 100
2005-03-30 07:20 51°19.667 2°57.294 10.8 10 8 101080 100
2005-03-30 07:21 51°19.747 2°57.612 11.1 8 8.1 101090 100
2005-03-30 07:22 51°19.826 2°57.931 10.7 8 8.1 101100 100
2005-03-30 07:23 51°19.907 2°58.245 10.7 9 8.1 101110 100
2005-03-30 07:24 51°20.001 2°58.553 10.4 10 8 101090 100
2005-03-30 07:25 51°20.088 2°58.865 10.4 5 8.1 101090 100
2005-03-30 07:26 51°20.175 2°59.175 10 7 8 101090 100
2005-03-30 07:27 51°20.263 2°59.482 10.4 8 8 101090 100
2005-03-30 07:28 51°20.349 2°59.79 10.1 9 7.9 101090 100
2005-03-30 07:29 51°20.432 3°0.096 10 11 7.9 101090 100
2005-03-30 07:30 51°20.513 3°0.405 10 10 7.9 101090 100
2005-03-30 07:31 51°20.592 3°0.709 9.9 11 8 101090 100
2005-03-30 07:32 51°20.667 3°1.012 10 10 8 101090 100
2005-03-30 07:33 51°20.741 3°1.32 11 12 8 101090 100
2005-03-30 07:34 51°20.813 3°1.622 11.1 12 8 101090 100
2005-03-30 07:35 51°20.89 3°1.929 11 12 8 101090 100
2005-03-30 07:36 51°20.965 3°2.232 11 10 8.1 101080 100
2005-03-30 07:37 51°21.041 3°2.54 10.7 11 8.1 101090 100
2005-03-30 07:38 51°21.115 3°2.843 10.6 11 8.1 101080 100
2005-03-30 07:39 51°21.189 3°3.149 11.3 11 8 101080 100
2005-03-30 07:40 51°21.257 3°3.453 11.4 11 8.1 101080 100
2005-03-30 07:41 51°21.321 3°3.761 11.4 11 8.1 101080 100
2005-03-30 07:42 51°21.386 3°4.072 11.1 13 8.1 101090 100
2005-03-30 07:43 51°21.449 3°4.378 11.2 14 8.1 101080 100
2005-03-30 07:44 51°21.514 3°4.687 10.6 13 8.2 101090 100
2005-03-30 07:45 51°21.578 3°4.993 10.5 12 8.2 101090 100
2005-03-30 07:46 51°21.641 3°5.299 10 12 8.1 101090 100
2005-03-30 07:47 51°21.703 3°5.602 10.3 11 8.1 101090 100
2005-03-30 07:48 51°21.764 3°5.902 10.8 12 8.1 101100 100
2005-03-30 07:49 51°21.825 3°6.199 11.3 13 8.1 101100 100
2005-03-30 07:50 51°21.88 3°6.503 11.2 11 8.1 101090 100
2005-03-30 07:51 51°21.919 3°6.804 10.6 14 8.1 101100 100
2005-03-30 07:52 51°21.958 3°7.103 10.8 9 8.1 101100 100
2005-03-30 07:53 51°21.972 3°7.398 10.9 10 8.1 101100 100
2005-03-30 07:54 51°21.987 3°7.697 10.7 11 8.1 101100 100
2005-03-30 07:55 51°21.999 3°7.995 10.7 11 8.1 101110 100
2005-03-30 07:56 51°22.014 3°8.294 10.4 13 8.1 101100 100
2005-03-30 07:57 51°22.031 3°8.593 9.9 11 8.1 101110 100
2005-03-30 07:58 51°22.048 3°8.896 10.3 14 8.2 101110 100
2005-03-30 07:59 51°22.065 3°9.196 10.7 14 8.3 101110 100
2005-03-30 08:00 51°22.083 3°9.502 10.3 15 8.4 101110 100
2005-03-30 08:01 51°22.111 3°9.802 10.3 17 8.4 101120 100
2005-03-30 08:02 51°22.146 3°10.096 9.8 15 8.4 101130 100
2005-03-30 08:03 51°22.181 3°10.373 8 11 8.4 101150 100
2005-03-30 08:04 51°22.208 3°10.585 7.7 10 8.2 101150 100
2005-03-30 08:05 51°22.247 3°10.853 9.8 12 8.1 101140 100
2005-03-30 08:06 51°22.291 3°11.151 9.8 15 8.1 101140 100
2005-03-30 08:07 51°22.336 3°11.445 10 14 8.1 101140 100
2005-03-30 08:08 51°22.382 3°11.74 10.5 17 8.3 101130 100
2005-03-30 08:09 51°22.428 3°12.032 10.1 17 8.6 101130 100
2005-03-30 08:10 51°22.475 3°12.33 9.7 17 8.7 101130 100
2005-03-30 08:11 51°22.544 3°12.612 9.3 15 8.6 101140 100
2005-03-30 08:12 51°22.659 3°12.862 9.3 23 8.4 101140 100
2005-03-30 08:13 51°22.828 3°13.03 9 23 8.3 101140 100
2005-03-30 08:14 51°23.039 3°13.034 7.3 34 8.3 101140 100
2005-03-30 08:15 51°23.258 3°12.952 8.1 37 8.4 101140 100
2005-03-30 08:16 51°23.47 3°12.966 9.1 32 8.2 101140 100
2005-03-30 08:17 51°23.669 3°13.069 9.9 34 8.3 101130 100
2005-03-30 08:18 51°23.868 3°13.177 10.6 33 8.2 101130 100
2005-03-30 08:19 51°24.067 3°13.284 10.2 33 8.2 101130 100
2005-03-30 08:20 51°24.269 3°13.387 10.3 34 8.2 101140 100
2005-03-30 08:21 51°24.472 3°13.479 9.6 36 8.3 101130 100
2005-03-30 08:22 51°24.694 3°13.411 7.5 47 8.3 101140 100
2005-03-30 08:23 51°24.904 3°13.206 6 52 8.3 101150 100
2005-03-30 08:24 51°25.057 3°12.878 3.5 41 8.2 101170 100
2005-03-30 08:25 51°25.14 3°12.482 2.9 33 8.2 101170 100
2005-03-30 08:26 51°25.182 3°12.077 2.3 351 8.2 101170 100
2005-03-30 08:27 51°25.165 3°11.669 2.9 344 8.3 101180 100
2005-03-30 08:28 51°25.121 3°11.271 2.2 341 8.3 101180 100
2005-03-30 08:29 51°25.068 3°10.882 3.7 328 8.3 101180 100
2005-03-30 08:30 51°25.021 3°10.49 2.8 336 8.3 101180 100
2005-03-30 08:31 51°24.957 3°10.118 3.6 325 8.3 101180 100
2005-03-30 08:32 51°24.893 3°9.745 3.7 329 8.3 101180 100
2005-03-30 08:33 51°24.835 3°9.373 2.8 332 8.3 101190 100
2005-03-30 08:34 51°24.79 3°8.991 2.9 336 8.3 101180 100
2005-03-30 08:35 51°24.788 3°8.603 2.3 342 8.3 101190 100
2005-03-30 08:36 51°24.765 3°8.215 2.2 350 8.3 101190 100
2005-03-30 08:37 51°24.761 3°7.822 2.3 359 8.4 101190 100
2005-03-30 08:38 51°24.837 3°7.457 4 49 8.4 101160 100
2005-03-30 08:39 51°25.019 3°7.233 7.6 48 8.3 101150 100
2005-03-30 08:40 51°25.236 3°7.185 8.4 51 8.2 101140 100
2005-03-30 08:41 51°25.455 3°7.122 9 47 8.1 101140 100
2005-03-30 08:42 51°25.674 3°7.166 9.2 48 8.2 101140 100
2005-03-30 08:43 51°25.894 3°7.196 9.5 45 8.1 101150 100
2005-03-30 08:44 51°26.112 3°7.22 9.1 47 8.1 101150 100
2005-03-30 08:45 51°26.333 3°7.243 8.7 47 8.1 101150 100
2005-03-30 08:46 51°26.556 3°7.276 8.5 44 8.2 101150 100
2005-03-30 08:47 51°26.781 3°7.302 8.3 48 8.2 101180 100
2005-03-30 08:48 51°27.006 3°7.327 8.7 44 8.3 101180 100
2005-03-30 08:49 51°27.232 3°7.353 8.4 46 8.3 101150 100
2005-03-30 08:50 51°27.458 3°7.38 8.7 44 8.3 101150 100
2005-03-30 08:51 51°27.684 3°7.405 8.4 42 8.3 101150 100
2005-03-30 08:52 51°27.915 3°7.426 7.5 47 8.3 101150 100
2005-03-30 08:53 51°28.142 3°7.383 7.3 50 8.3 101160 100
2005-03-30 08:54 51°28.371 3°7.33 6.8 43 8.3 101160 100
2005-03-30 08:55 51°28.602 3°7.265 6.5 37 8.2 101160 100
2005-03-30 08:56 51°28.818 3°7.14 5.4 34 8.1 101160 100
2005-03-30 08:57 51°29.028 3°6.984 5.3 28 8.1 101170 100
2005-03-30 08:58 51°29.232 3°6.812 5.3 25 8.1 101200 100
2005-03-30 08:59 51°29.437 3°6.629 5.9 19 8 101210 100
2005-03-30 09:00 51°29.64 3°6.445 5.4 26 8 101200 100
2005-03-30 09:01 51°29.844 3°6.264 4.9 28 8.1 101210 100
2005-03-30 09:02 51°30.047 3°6.084 5.1 26 8.2 101210 100
2005-03-30 09:03 51°30.25 3°5.903 5.9 18 8.2 101210 100
2005-03-30 09:04 51°30.45 3°5.721 5.6 22 8.1 101210 100
2005-03-30 09:05 51°30.651 3°5.538 5.7 23 8.1 101220 100
2005-03-30 09:06 51°30.851 3°5.357 5.5 21 8.1 101210 100
2005-03-30 09:07 51°31.05 3°5.176 5.9 18 8.1 101220 100
2005-03-30 09:08 51°31.247 3°4.995 5.7 17 8 101220 100
2005-03-30 09:09 51°31.446 3°4.814 5.8 15 8 101220 100
2005-03-30 09:10 51°31.647 3°4.631 5.3 15 7.9 101190 100
2005-03-30 09:11 51°31.848 3°4.451 5.8 13 7.9 101190 100
2005-03-30 09:12 51°32.002 3°4.176 5.5 5 7.8 101190 100
2005-03-30 09:13 51°32.137 3°3.863 5.8 6 7.8 101190 100
2005-03-30 09:14 51°32.256 3°3.537 5.4 9 7.8 101190 100
2005-03-30 09:15 51°32.376 3°3.212 5.2 10 7.9 101190 100
2005-03-30 09:16 51°32.495 3°2.886 5.3 9 7.9 101190 100
2005-03-30 09:17 51°32.618 3°2.558 4.8 7 7.9 101190 100
2005-03-30 09:18 51°32.724 3°2.219 5.1 1 7.9 101200 100
2005-03-30 09:19 51°32.731 3°1.836 5.7 4 7.9 101200 100
2005-03-30 09:20 51°32.668 3°1.468 6 1 7.9 101190 100
2005-03-30 09:21 51°32.594 3°1.097 5.9 355 7.8 101190 100
2005-03-30 09:22 51°32.51 3°0.735 6 357 7.8 101190 100
2005-03-30 09:23 51°32.427 3°0.375 5.5 355 7.8 101200 100
2005-03-30 09:24 51°32.336 3°0.017 5.7 351 7.8 101190 100
2005-03-30 09:25 51°32.239 2°59.666 6 353 7.9 101200 100
2005-03-30 09:26 51°32.142 2°59.312 6 358 7.9 101200 100
2005-03-30 09:27 51°32.046 2°58.958 5.9 355 7.9 101200 100
2005-03-30 09:28 51°31.951 2°58.605 6 1 7.9 101200 100
2005-03-30 09:29 51°31.855 2°58.246 6.6 356 7.9 101200 100
2005-03-30 09:30 51°31.762 2°57.89 7.4 350 7.9 101200 100
2005-03-30 09:31 51°31.666 2°57.528 7.1 350 7.9 101210 100
2005-03-30 09:32 51°31.565 2°57.167 6.9 349 7.9 101200 100
2005-03-30 09:33 51°31.465 2°56.804 6.6 342 7.9 101200 100
2005-03-30 09:34 51°31.362 2°56.44 6.7 344 8 101210 100
2005-03-30 09:35 51°31.272 2°56.073 5.7 347 8.1 101210 100
2005-03-30 09:36 51°31.258 2°55.687 4.9 352 8.2 101210 100
2005-03-30 09:37 51°31.35 2°55.349 4.4 359 8.2 101220 100
2005-03-30 09:38 51°31.514 2°55.093 4.8 4 8.2 101220 100
2005-03-30 09:39 51°31.693 2°55.11 7.1 27 8.2 101220 100
2005-03-30 09:40 51°31.815 2°55.376 7.4 22 8.1 101210 100
2005-03-30 09:41 51°31.933 2°55.649 7 17 8 101210 100
2005-03-30 09:42 51°32.055 2°55.92 7.3 20 7.9 101210 100
2005-03-30 09:43 51°32.183 2°56.184 7.8 27 7.9 101210 100
2005-03-30 09:44 51°32.312 2°56.444 7.6 26 7.9 101210 100
2005-03-30 09:45 51°32.439 2°56.705 7 23 8 101210 100
2005-03-30 09:46 51°32.568 2°56.971 7.2 18 7.9 101220 100
2005-03-30 09:47 51°32.697 2°57.237 7.5 16 7.9 101220 100
2005-03-30 09:48 51°32.826 2°57.5 6.9 12 7.9 101220 100
2005-03-30 09:49 51°32.953 2°57.766 6.6 13 7.9 101220 100
2005-03-30 09:50 51°33.08 2°58.029 6.7 14 7.9 101220 100
2005-03-30 09:51 51°33.205 2°58.292 6.7 14 7.9 101230 100
2005-03-30 09:52 51°33.333 2°58.558 7 12 7.9 101220 100
2005-03-30 09:53 51°33.465 2°58.817 7.5 15 7.9 101220 100
2005-03-30 09:54 51°33.598 2°59.077 7.5 15 7.9 101220 100
2005-03-30 09:55 51°33.73 2°59.338 7.2 11 7.8 101220 100
2005-03-30 09:56 51°33.861 2°59.6 7.3 13 7.8 101230 100
2005-03-30 09:57 51°33.991 2°59.861 7.7 13 7.8 101220 100
2005-03-30 09:58 51°34.12 3°0.122 8.1 13 7.8 101220 100
2005-03-30 09:59 51°34.247 3°0.377 7.4 12 7.8 101220 100
2005-03-30 10:00 51°34.373 3°0.633 7.3 10 7.7 101220 100
2005-03-30 10:01 51°34.5 3°0.89 8 11 7.7 101220 100
2005-03-30 10:02 51°34.656 3°1.066 6.5 18 7.7 101220 100
2005-03-30 10:03 51°34.831 3°0.886 6.3 14 7.7 101220 100
2005-03-30 10:04 51°34.996 3°0.647 6.7 15 7.7 101220 100
2005-03-30 10:05 51°35.158 3°0.398 6.8 21 7.7 101220 100
2005-03-30 10:06 51°35.161 3°0.036 5.9 7 7.7 101260 100
2005-03-30 10:07 51°35.025 2°59.699 6 3 7.6 101260 100
2005-03-30 10:08 51°34.9 2°59.357 6.6 4 7.6 101260 100
2005-03-30 10:09 51°34.762 2°59.013 6.4 3 7.6 101270 100
2005-03-30 10:10 51°34.626 2°58.68 6.5 11 7.7 101270 100
2005-03-30 10:11 51°34.488 2°58.341 6.7 10 7.7 101270 100
2005-03-30 10:12 51°34.35 2°58.002 7 10 7.7 101260 100
2005-03-30 10:13 51°34.209 2°57.659 7.8 8 7.7 101270 100
2005-03-30 10:14 51°34.071 2°57.321 8.2 14 7.7 101270 100
2005-03-30 10:15 51°33.931 2°56.982 8.3 11 7.7 101260 100
2005-03-30 10:16 51°33.789 2°56.639 8.9 16 7.7 101260 100
2005-03-30 10:17 51°33.651 2°56.299 8.3 16 7.7 101260 100
2005-03-30 10:18 51°33.509 2°55.959 7.9 16 7.8 101270 100
2005-03-30 10:19 51°33.37 2°55.619 9.8 24 7.8 101270 100
2005-03-30 10:20 51°33.23 2°55.274 8.5 16 7.7 101260 100
2005-03-30 10:21 51°33.091 2°54.936 9.4 15 7.8 101270 100
2005-03-30 10:22 51°32.952 2°54.594 9.4 17 7.8 101270 100
2005-03-30 10:23 51°32.812 2°54.25 9.4 13 7.8 101270 100
2005-03-30 10:24 51°32.67 2°53.905 9.8 15 7.8 101270 100
2005-03-30 10:25 51°32.531 2°53.566 9.8 15 7.9 101280 100
2005-03-30 10:26 51°32.391 2°53.226 9.3 14 7.8 101280 100
2005-03-30 10:27 51°32.247 2°52.878 9.4 18 7.8 101270 100
2005-03-30 10:28 51°32.109 2°52.543 8.9 14 7.8 101280 100
2005-03-30 10:29 51°31.969 2°52.2 9.4 14 7.8 101280 100
2005-03-30 10:30 51°31.825 2°51.86 9.3 12 7.8 101270 100
2005-03-30 10:31 51°31.681 2°51.518 9.5 16 7.8 101280 100
2005-03-30 10:32 51°31.547 2°51.171 9.6 15 7.9 101280 100
2005-03-30 10:33 51°31.412 2°50.818 9.6 13 7.8 101270 100
2005-03-30 10:34 51°31.277 2°50.471 9.4 16 7.8 101230 100
2005-03-30 10:35 51°31.145 2°50.121 9.9 17 8 101230 100
2005-03-30 10:36 51°31.011 2°49.773 9.7 17 7.9 101230 100
2005-03-30 10:37 51°30.873 2°49.42 9.6 20 7.9 101240 100
2005-03-30 10:38 51°30.741 2°49.072 9.9 22 7.9 101240 100
2005-03-30 10:39 51°30.606 2°48.72 9.4 17 7.9 101240 100
2005-03-30 10:40 51°30.47 2°48.363 9.2 20 7.9 101270 100
2005-03-30 10:41 51°30.334 2°48.012 9.2 18 7.9 101250 100
2005-03-30 10:42 51°30.199 2°47.657 9.5 18 7.8 101250 100
2005-03-30 10:43 51°30.063 2°47.302 9.6 21 7.8 101240 100
2005-03-30 10:44 51°29.928 2°46.951 9.6 22 7.9 101240 100
2005-03-30 10:45 51°29.791 2°46.599 9.8 18 7.9 101250 100
2005-03-30 10:46 51°29.657 2°46.248 9.3 18 7.9 101290 100
2005-03-30 10:47 51°29.561 2°45.876 9.4 11 7.9 101290 100
2005-03-30 10:48 51°29.599 2°45.505 9.7 358 7.8 101290 100
2005-03-30 10:49 51°29.771 2°45.308 8.3 350 7.7 101280 100
2005-03-30 10:50 51°29.97 2°45.291 7 342 7.7 101290 100
2005-03-30 10:51 51°30.136 2°45.467 6.7 345 7.8 101290 100
2005-03-30 10:52 51°30.29 2°45.664 6.3 343 7.8 101300 100
2005-03-30 10:53 51°30.427 2°45.894 6.1 345 7.8 101290 100
2005-03-30 10:54 51°30.55 2°46.142 5.4 344 7.8 101300 100
2005-03-30 10:55 51°30.648 2°46.413 5.6 348 7.8 101300 100
2005-03-30 10:56 51°30.75 2°46.68 6 345 7.8 101300 100
2005-03-30 10:57 51°30.851 2°46.947 6 350 7.8 101300 100
2005-03-30 10:58 51°30.951 2°47.212 5.8 344 7.9 101300 100
2005-03-30 10:59 51°31.054 2°47.479 6.3 345 7.9 101310 100
2005-03-30 11:00 51°31.152 2°47.744 6.7 345 7.9 101300 100
2005-03-30 11:01 51°31.253 2°48.012 5.8 345 7.9 101310 100
2005-03-30 11:02 51°31.354 2°48.279 6 343 8 101310 100
2005-03-30 11:03 51°31.454 2°48.549 6.5 344 8 101300 100
2005-03-30 11:04 51°31.559 2°48.821 6.5 348 8 101310 100
2005-03-30 11:05 51°31.66 2°49.088 6.2 346 8 101310 100
2005-03-30 11:06 51°31.762 2°49.358 6.1 346 8 101310 100
2005-03-30 11:07 51°31.864 2°49.629 6.2 352 7.9 101310 100
2005-03-30 11:08 51°31.967 2°49.9 7 354 7.8 101310 100
2005-03-30 11:09 51°32.069 2°50.17 7.5 353 7.7 101310 100
2005-03-30 11:10 51°32.171 2°50.438 6.9 353 7.7 101310 100
2005-03-30 11:11 51°32.273 2°50.709 8 355 7.6 101310 100
2005-03-30 11:12 51°32.374 2°50.977 8.2 354 7.5 101310 100
2005-03-30 11:13 51°32.474 2°51.241 7.5 354 7.5 101310 100
2005-03-30 11:14 51°32.577 2°51.507 8.3 352 7.4 101310 100
2005-03-30 11:15 51°32.68 2°51.774 8.3 354 7.4 101310 100
2005-03-30 11:16 51°32.781 2°52.044 8.5 354 7.4 101310 100
2005-03-30 11:17 51°32.883 2°52.31 7.7 355 7.5 101310 100
2005-03-30 11:18 51°32.984 2°52.58 7.7 353 7.5 101300 100
2005-03-30 11:19 51°33.084 2°52.845 7.6 354 7.5 101310 100
2005-03-30 11:20 51°33.104 2°53.155 6.3 357 7.6 101300 100
2005-03-30 11:21 51°33.057 2°53.48 6.7 352 7.6 101310 100
2005-03-30 11:22 51°33.006 2°53.807 6.3 354 7.7 101300 100
2005-03-30 11:23 51°32.951 2°54.134 6 360 7.7 101310 100
2005-03-30 11:24 51°32.808 2°54.409 5.8 1 7.7 101320 100
2005-03-30 11:25 51°32.627 2°54.646 6 359 7.7 101310 100
2005-03-30 11:26 51°32.418 2°54.834 5.8 9 7.7 101310 100
2005-03-30 11:27 51°32.202 2°55.011 5.6 9 7.8 101310 100
2005-03-30 11:28 51°31.987 2°55.188 5.5 14 7.8 101320 100
2005-03-30 11:29 51°31.775 2°55.372 5.7 7 7.9 101320 100
2005-03-30 11:30 51°31.558 2°55.557 5.6 11 7.9 101320 100
2005-03-30 11:31 51°31.351 2°55.758 5.8 10 7.9 101320 100
2005-03-30 11:32 51°31.145 2°55.968 5.7 11 7.8 101330 100
2005-03-30 11:33 51°30.94 2°56.18 5.3 12 7.8 101330 100
2005-03-30 11:34 51°30.739 2°56.367 4.8 12 7.7 101320 100
2005-03-30 11:35 51°30.542 2°56.563 4.8 20 7.8 101320 100
2005-03-30 11:36 51°30.35 2°56.754 4.8 17 7.7 101330 100
2005-03-30 11:37 51°30.148 2°56.926 5.4 26 7.6 101330 100
2005-03-30 11:38 51°29.919 2°57.026 5.5 28 7.6 101320 100
2005-03-30 11:39 51°29.688 2°57.097 5.4 31 7.6 101320 100
2005-03-30 11:40 51°29.445 2°57.123 6.4 31 7.6 101320 100
2005-03-30 11:41 51°29.2 2°57.069 6.6 30 7.6 101320 100
2005-03-30 11:42 51°28.96 2°56.971 6.7 29 7.5 101320 100
2005-03-30 11:43 51°28.719 2°56.877 6.8 34 7.6 101320 100
2005-03-30 11:44 51°28.48 2°56.782 6.8 34 7.6 101320 100
2005-03-30 11:45 51°28.236 2°56.691 6.4 31 7.5 101320 100
2005-03-30 11:46 51°27.997 2°56.589 6.5 32 7.5 101330 100
2005-03-30 11:47 51°27.752 2°56.467 6.2 34 7.5 101330 100
2005-03-30 11:48 51°27.509 2°56.35 6.5 30 7.5 101330 100
2005-03-30 11:49 51°27.262 2°56.238 6.2 34 7.5 101330 100
2005-03-30 11:50 51°27.015 2°56.149 6.1 34 7.5 101330 100
2005-03-30 11:51 51°26.767 2°56.06 5.7 36 7.4 101330 100
2005-03-30 11:52 51°26.518 2°55.978 6 37 7.5 101330 100
2005-03-30 11:53 51°26.271 2°55.879 6.4 37 7.5 101330 100
2005-03-30 11:54 51°26.022 2°55.784 6.1 36 7.5 101340 100
2005-03-30 11:55 51°25.776 2°55.688 5.8 42 7.5 101330 100
2005-03-30 11:56 51°25.53 2°55.604 6.2 39 7.6 101330 100
2005-03-30 11:57 51°25.286 2°55.497 6.7 41 7.6 101330 100
2005-03-30 11:58 51°25.05 2°55.374 6.7 41 7.5 101330 100
2005-03-30 11:59 51°24.812 2°55.265 5.8 42 7.6 101330 100
2005-03-30 12:00 51°24.577 2°55.16 5.7 41 7.5 101330 100
2005-03-30 12:01 51°24.34 2°55.046 6.2 50 7.5 101330 100
2005-03-30 12:02 51°24.1 2°54.934 6 50 7.5 101330 100
2005-03-30 12:03 51°23.86 2°54.819 6 42 7.4 101320 100
2005-03-30 12:04 51°23.619 2°54.7 6.2 39 7.5 101330 100
2005-03-30 12:05 51°23.376 2°54.586 6.4 42 7.5 101320 100
2005-03-30 12:06 51°23.131 2°54.47 5.9 47 7.4 101320 100
2005-03-30 12:07 51°22.888 2°54.361 6.1 43 7.5 101320 100
2005-03-30 12:08 51°22.648 2°54.248 6.5 46 7.4 101320 100
2005-03-30 12:09 51°22.414 2°54.137 6.2 39 7.4 101320 100
2005-03-30 12:10 51°22.183 2°54.026 6 40 7.4 101320 100
2005-03-30 12:11 51°21.951 2°53.915 6.2 42 7.4 101320 100
2005-03-30 12:12 51°21.717 2°53.804 6.1 38 7.4 101320 100
2005-03-30 12:13 51°21.485 2°53.691 6.5 37 7.4 101330 100
2005-03-30 12:14 51°21.245 2°53.58 6.6 32 7.3 101330 100
2005-03-30 12:15 51°21.005 2°53.463 6.7 35 7.3 101330 100
2005-03-30 12:16 51°20.769 2°53.35 7 30 7.4 101330 100
2005-03-30 12:17 51°20.531 2°53.25 7.2 28 7.4 101330 100
2005-03-30 12:18 51°20.291 2°53.153 7.3 32 7.4 101340 100
2005-03-30 12:19 51°20.052 2°53.054 7.6 33 7.4 101340 100
2005-03-30 12:20 51°19.814 2°52.957 7.3 26 7.5 101340 100
2005-03-30 12:21 51°19.576 2°52.86 7.4 27 7.5 101340 100
2005-03-30 12:22 51°19.335 2°52.755 7.3 28 7.5 101350 100
2005-03-30 12:23 51°19.1 2°52.661 7.8 27 7.5 101350 100
2005-03-30 12:24 51°18.865 2°52.562 7.9 22 7.5 101350 100
2005-03-30 12:25 51°18.627 2°52.507 7.5 26 7.6 101350 100
2005-03-30 12:26 51°18.387 2°52.474 8.1 18 7.6 101360 100
2005-03-30 12:27 51°18.148 2°52.436 7.7 20 7.6 101360 100
2005-03-30 12:28 51°17.906 2°52.401 8 16 7.6 101360 100
2005-03-30 12:29 51°17.665 2°52.388 8.1 17 7.6 101360 100
2005-03-30 12:30 51°17.427 2°52.396 8.1 18 7.6 101360 100
2005-03-30 12:31 51°17.187 2°52.396 8 18 7.6 101360 100
2005-03-30 12:32 51°16.957 2°52.451 7.8 19 7.6 101370 100
2005-03-30 12:33 51°16.736 2°52.575 7.8 20 7.6 101370 100
2005-03-30 12:34 51°16.523 2°52.746 7.9 20 7.6 101360 100
2005-03-30 12:35 51°16.314 2°52.914 7.7 19 7.6 101370 100
2005-03-30 12:36 51°16.105 2°53.078 7.9 17 7.6 101370 100
2005-03-30 12:37 51°15.892 2°53.237 8 18 7.7 101360 100
2005-03-30 12:38 51°15.685 2°53.395 7.7 16 7.7 101370 100
2005-03-30 12:39 51°15.476 2°53.553 7.3 15 7.7 101370 100
2005-03-30 12:40 51°15.275 2°53.707 6.5 17 7.7 101370 100
2005-03-30 12:41 51°15.082 2°53.897 6.7 13 7.8 101370 100
2005-03-30 12:42 51°14.906 2°54.125 6.5 13 7.8 101370 100
2005-03-30 12:43 51°14.735 2°54.353 5.9 11 7.8 101370 100
2005-03-30 12:44 51°14.592 2°54.572 5.5 14 7.8 101370 100
2005-03-30 12:45 51°14.473 2°54.818 5.7 12 7.8 101370 100
2005-03-30 12:46 51°14.37 2°55.044 3.7 14 7.9 101380 100
2005-03-30 12:47 51°14.297 2°55.204 3 13 8 101380 100
2005-03-30 12:48 51°14.212 2°55.336 2.7 22 8 101380 100
2005-03-30 12:49 51°14.125 2°55.415 1.7 31 8.1 101380 100
2005-03-30 12:50 51°14.059 2°55.466 0.1 47 8.1 101380 100
2005-03-30 12:51 51°14.018 2°55.526 -999 148 8.1 101380 100
2005-03-30 12:52 51°13.989 2°55.556 1.2 159 8.2 101380 100
2005-03-30 12:53 51°13.974 2°55.566 1.4 149 8.2 101380 100
2005-03-30 12:54 51°13.952 2°55.574 0.7 123 8.2 101380 100
2005-03-30 12:55 51°13.887 2°55.606 1.4 41 8.2 101380 100
2005-03-30 12:56 51°13.792 2°55.674 1.1 2 8.2 101380 100
2005-03-30 12:57 51°13.714 2°55.781 -999 341 8.3 101370 100
2005-03-30 12:58 51°13.669 2°55.88 -999 331 8.4 101380 100
2005-03-30 12:59 51°13.632 2°55.974 -999 329 8.4 101380 100
2005-03-30 13:00 51°13.607 2°56.055 -999 273 8.5 101380 100
2005-03-30 13:01 51°13.595 2°56.1 -999 183 8.5 101380 100